{"data":{"norad_id":63074,"epoch":"2026-05-25T04:53:12.697152Z","epoch_age_seconds":67776,"freshness":"FRESH","line1":"1 63074U 25035Y   26145.20361918  .00018115  00000+0  66616-3 0  9996","line2":"2 63074  43.0026  74.7794 0001497 240.5180 119.5522 15.27580572 71427","mean_motion":15.27580572,"eccentricity":0.0001497,"inclination_deg":43.0026,"raan_deg":74.7794,"arg_perigee_deg":240.518,"mean_anomaly_deg":119.5522,"bstar":0.00066616,"rev_number":7142,"period_min":94.266713415625,"perigee_km":482.02026396424,"apogee_km":484.07450256859,"semimajor_km":6861.1843832664,"source":"CELESTRAK","updated_at":"2026-05-25T13:38:19.876284Z"}}